Regional Weather Roundup
Issued by NWS

Home | Current Version | Previous Version | Text Only | Print | Product List | Glossary Off
Versions: 1 2 3 4 5 6 7 8 9 10 11 12 13 14 15 16 17 18 19 20 21 22 23 24 25 26 27 28 29 30 31 32 33 34 35 36 37 38 39 40 41 42 43 44 45 46 47 48 49 50

000
ASUS45 KBOU 290307
RWRCO

WEATHER ROUNDUP FOR COLORADO
NATIONAL WEATHER SERVICE DENVER/BOULDER CO
800 PM MST WED JAN 28 2015

NOTE: "FAIR" INDICATES FEW OR NO CLOUDS BELOW 12000 FEET WITH NO
SIGNIFICANT WEATHER AND/OR OBSTRUCTIONS TO VISIBILITY.

COZ001>005-013-030-031-290400-
...NORTHWEST COLORADO...

CITY           SKY/WX    TMP DP  RH WIND       PRES   REMARKS
CRAIG          CLOUDY    35  31  85 CALM      30.31R
HAYDEN         CLOUDY    36  28  75 CALM      30.31R
MEEKER         CLEAR     29  24  82 CALM      30.30R
MOUNT WERNER   NOT AVBL
STEAMBOAT SPGS CLOUDY    36  29  76 CALM      30.31R
WALDEN         CLOUDY    34  27  75 SW3       30.29S
$$

COZ006>008-011-290400-
...WEST CENTRAL VALLEYS...

CITY           SKY/WX    TMP DP  RH WIND       PRES   REMARKS
GRAND JUNCTION CLOUDY    41  33  73 CALM      30.26R
MONTROSE       PTCLDY    36  27  69 SE7       30.30R
EAGLE          PTCLDY    36  27  69 VRB7      30.31R
RIFLE          CLOUDY    41  30  65 CALM      30.28R
DELTA          PTCLDY    41  30  66 N7        30.27R
NUCLA          PTCLDY    36  27  69 E8        30.31S
$$

COZ017>023-064>068-290400-
...SOUTHWEST COLORADO...

CITY           SKY/WX    TMP DP  RH WIND       PRES   REMARKS
DURANGO        PTCLDY    37  28  70 N3        30.27R
CORTEZ         CLEAR     33  25  72 E7        30.28R WCI  27
PAGOSA SPRINGS PTCLDY    32  25  76 CALM      30.29R
TELLURIDE      PTCLDY    32  24  72 CALM      30.34R
WOLF CREEK PAS NOT AVBL
$$

COZ009-010-012-014-032>034-037-058>063-290400-
...CENTRAL COLORADO...

CITY           SKY/WX    TMP DP  RH WIND       PRES   REMARKS
ASPEN          CLEAR     31  24  75 S3        30.30R
BUENA VISTA    PTCLDY    35  18  49 NW9       30.28R WCI  28
COPPER MTN     PTCLDY    23  18  80 W9        30.36R WCI  13
BERTHOUD PASS  CLOUDY    18  10  73 NW9       30.36R WCI   6
COTTONWOOD PAS PTCLDY    36  18  48 W13G20    30.31R
GUNNISON       PTCLDY    19  12  73 CALM      30.33R
KREMMLING      CLOUDY    34  28  80 CALM      30.32S
LEADVILLE      CLEAR     19  11  70 NE9       30.31S WCI   8
MONARCH PASS   PTCLDY    21  16  79 MISG      30.45R
SALIDA         PTCLDY    36  20  53 SW7       30.35R
SUNLIGHT       PTCLDY    27  25  93 CALM        N/A
WILKERSON PASS PTCLDY    25  12  58 N9        30.36R WCI  15
$$

COZ069>075-290400-
...SAN LUIS VALLEY/SANGRE DE CRISTO MOUNTAINS...

CITY           SKY/WX    TMP DP  RH WIND       PRES   REMARKS
ALAMOSA        PTCLDY    33  19  56 NW8       30.26R WCI  26
LA VETA PASS   NOT AVBL
SAGUACHE       PTCLDY    32  21  64 NE7       30.29R WCI  26
$$

COZ035-036-038>040-290400-
...NORTHERN COLORADO FRONT RANGE...

CITY           SKY/WX    TMP DP  RH WIND       PRES   REMARKS
DENVER INTL AP PTCLDY    36  32  85 E9        30.23R
DMNS CITY PARK   N/A     41  32  70 E10G18    30.24R
AURORA         PTCLDY    37  33  87 E10       30.25R
FRONT RANGE AP NOT AVBL
ERIE MUNI ARPT CLEAR     41  23  48 CALM      30.21R
BOULDER MUN AP CLEAR     46  19  34 W3        30.21R
CENTENNIAL     PTCLDY    39  32  76 E12       30.24R
BROOMFIELD     PTCLDY    46  19  34 E7        30.22R
FORT COLLINS   PTCLDY    48  23  37 NW5       30.21R
LONGMONT       PTCLDY    45  23  41 SW6       30.23R
$$

COZ041-046-047-076>085-087-088-290400-
...PIKES PEAK/PALMER DIVIDE AND SOUTHERN FOOTHILLS...

CITY           SKY/WX    TMP DP  RH WIND       PRES   REMARKS
COLO. SPRINGS  PTCLDY    42  23  46 N10       30.24R
A. F. ACADEMY  CLEAR     37  20  49 N13       30.23R
ELLICOTT       CLEAR    N/A N/A N/A NE22G31   30.21R
FALCON         CLEAR     36  25  64 NE9G18    30.26R
FORT CARSON    CLEAR     43  21  42 N13       30.21R
LIMON          CLEAR     37  31  78 N15       30.23R
MONUMENT HILL  CLEAR     32  27  80 E9        30.26R WCI  24
TRINIDAD       MOCLDY    45  27  49 W8        30.19R
$$

COZ042>045-048>051-090-091-290400-
...NORTHEAST COLORADO...

CITY           SKY/WX    TMP DP  RH WIND       PRES   REMARKS
GREELEY ARPT   MOCLDY    46  30  53 N22G29    30.19R
AKRON          PTCLDY    39  35  86 NW18      30.20R
BURLINGTON     CLEAR     42  33  70 NW13      30.19R
WRAY           CLEAR     41  35  81 MISG      30.17R
STERLING       PTCLDY    41  37  87 NW10      30.20S
HOLYOKE        CLEAR     43  36  75 NW13      30.16R
FORT MORGAN    CLOUDY    43  32  65 N15       30.23R
$$

COZ086-089-092>099-290400-
...SOUTHEAST COLORADO...

CITY           SKY/WX    TMP DP  RH WIND       PRES   REMARKS
PUEBLO         PTCLDY    45  24  43 NW3       30.20R
LA JUNTA       PTCLDY    46  30  53 MISG      30.18R
LAMAR          CLEAR     49  33  54 NE5       30.15R
SPRINGFIELD      N/A     48  29  47 N16       30.17R
$$


USA.gov is the U.S. government's official web portal to all federal, state and local government web resources and services.